This is the latest recevied weather packets stored in our database for station/object W1LBM. If no packets are shown the sender has not sent any weather packets the latest 10 day(s).
| Time | Temp. | Humidity | Pressure | Rain* | Wind** | Luminosity | Snow |
|---|---|---|---|---|---|---|---|
| 1777855958 | 7.22° C | 54% | 1012.6 hPa | 0 mm | - | 0 W/m² | - |
| 1777855656 | 7.78° C | 52% | 1012.6 hPa | 0 mm | - | 0 W/m² | - |
| 1777855353 | 8.33° C | 48% | 1012.6 hPa | 0 mm | - | 0 W/m² | - |
| 1777855049 | 8.89° C | 46% | 1012.5 hPa | 0 mm | - | 0 W/m² | - |
| 1777854746 | 8.89° C | 43% | 1012.5 hPa | 0 mm | - | 0 W/m² | - |
| 1777854443 | 9.44° C | 43% | 1012.3 hPa | 0 mm | - | 0 W/m² | - |
| 1777854140 | 9.44° C | 43% | 1012.2 hPa | 0 mm | - | 0 W/m² | - |
| 1777853838 | 9.44° C | 44% | 1012.3 hPa | 0 mm | - | 0 W/m² | - |
| 1777853534 | 10° C | 42% | 1012.2 hPa | 0 mm | - | 0 W/m² | - |
| 1777853231 | 10° C | 42% | 1012.1 hPa | 0 mm | - | 0 W/m² | - |
| 1777852928 | 10° C | 41% | 1012 hPa | 0 mm | - | 0 W/m² | - |
| 1777852626 | 10° C | 41% | 1012 hPa | 0 mm | - | 1 W/m² | - |
| 1777852323 | 10° C | 41% | 1012.1 hPa | 0 mm | - | 2 W/m² | - |
| 1777852021 | 10° C | 42% | 1012 hPa | 0 mm | - | 3 W/m² | - |
| 1777851719 | 10.56° C | 41% | 1012.1 hPa | 0 mm | - | 4 W/m² | - |
| 1777851415 | 10.56° C | 41% | 1011.9 hPa | 0 mm | - | 6 W/m² | - |
| 1777851111 | 10.56° C | 41% | 1012 hPa | 0 mm | - | 9 W/m² | - |
| 1777850808 | 10.56° C | 40% | 1011.7 hPa | 0 mm | - | 12 W/m² | - |
| 1777850506 | 10.56° C | 40% | 1011.6 hPa | 0 mm | - | 14 W/m² | - |
| 1777850204 | 10.56° C | 40% | 1011.7 hPa | 0 mm | - | 19 W/m² | - |
| 1777849899 | 10.56° C | 40% | 1011.6 hPa | 0 mm | - | 20 W/m² | - |
| 1777849597 | 10.56° C | 40% | 1011.6 hPa | 0 mm | - | 24 W/m² | - |
| 1777849294 | 10.56° C | 40% | 1011.5 hPa | 0 mm | - | 26 W/m² | - |
| 1777848991 | 10.56° C | 40% | 1011.3 hPa | 0 mm | - | 22 W/m² | - |
| 1777848691 | 10.56° C | 41% | 1011.4 hPa | 0 mm | - | 26 W/m² | - |
* Rain latest hour (hover to see other rain measurements)
** Current wind speed in m/s (hover to see current wind gust speed)